{"data":{"norad_id":56186,"intl_designator":"2023-054J","name":"GHGSAT-C8","alt_names":[],"object_type":"PAYLOAD","status":"ACTIVE","operator":null,"country":"CA","launch_date":"2023-04-15","launch_site_code":"AFWTR","launch_vehicle":null,"mission":null,"orbit_class":"UNKNOWN","rcs_meters":null,"size_class":null,"mass_kg":null,"dimensions":null,"purposes":[],"wikipedia_slug":null,"has_3d_model":false,"image_url":null,"decayed_at":null,"tle_current":{"epoch":"2026-05-25T05:11:47.614848Z","epoch_age_seconds":63299,"freshness":"FRESH","line1":"1 56186U 23054J   26145.21652332  .00015357  00000+0  25471-3 0  9994","line2":"2 56186  97.3006  54.0553 0006125 130.9684 229.2099 15.52203390174870","mean_motion":15.5220339,"eccentricity":0.0006125,"inclination_deg":97.3006,"raan_deg":54.0553,"arg_perigee_deg":130.9684,"mean_anomaly_deg":229.2099,"bstar":0.00025471,"rev_number":17487,"period_min":92.771347445646,"perigee_km":406.1363185576,"apogee_km":414.45214681764,"semimajor_km":6788.4312326876,"source":"CELESTRAK","updated_at":"2026-05-25T13:37:59.396459Z"}}}